[[{"header":{"parameterUnit":"m.s-1","parameterCategory":1,"la1":30.2992,"la2":30.254,"lo1":-89.0895,"lo2":-89.0443,"dy":0.0025,"dx":0.0025,"nx":19,"ny":19,"refTime":"2026-05-05T09:00:00:Z","depth":0,"parameterNumber":2,"parameterNumberName":"U-component_of_WINDS"},"data":[0,0,0,-1.2589,-1.2588,-1.2519,-1.2519,-1.244,-1.2439,0,0,0,0,0,0,0,0,0,0,0,-1.2616,-1.2615,-1.2589,-1.2588,-1.2519,-1.2519,-1.244,-1.2439,0,0,0,0,0,0,0,0,0,0,0,-1.2616,-1.2616,-1.2615,-1.2587,-1.2519,-1.2519,-1.244,-1.2488,0,0,0,0,0,0,0,0,0,0,-1.2553,-1.2585,-1.2616,-1.2615,-1.2587,-1.2519,-1.2519,-1.2491,-1.2485,-1.2475,0,-1.2469,0,-1.2453,-1.2435,-1.2434,0,0,0,-1.2582,-1.2589,-1.2565,-1.2615,-1.2586,-1.2519,-1.2549,-1.2488,-1.2482,-1.2468,-1.2467,-1.2464,-1.2452,-1.2434,-1.2434,-1.2394,-1.2395,0,0,-1.2586,-1.2606,-1.2569,-1.2561,-1.2574,-1.2551,-1.2547,-1.2484,-1.2484,-1.2467,-1.2462,-1.245,-1.2434,-1.2433,-1.2394,-1.2394,0,0,0,-1.2601,-1.2609,-1.2587,-1.2565,-1.2552,-1.2549,-1.2544,-1.2486,-1.2477,-1.2461,-1.2449,-1.2433,-1.2432,-1.2394,-1.2394,-1.2417,0,0,0,-1.2603,-1.2618,-1.2588,-1.26,-1.2553,-1.2519,-1.2548,-1.2482,-1.2474,-1.245,-1.2433,-1.2432,-1.2394,-1.2394,-1.2417,-1.2424,0,0,0,-1.2618,-1.2619,-1.2612,-1.2601,-1.2573,-1.2519,-1.2506,-1.248,-1.2467,-1.2434,-1.2432,-1.2394,-1.2394,-1.2416,-1.2423,-1.242,0,0,0,-1.264,-1.2632,-1.2613,-1.26,-1.2574,-1.2535,-1.2507,-1.2476,-1.2451,-1.2433,-1.2394,-1.2394,-1.2416,-1.2422,-1.2419,-1.242,-1.2423,0,0,-1.2642,-1.2633,-1.2624,-1.2604,-1.2574,-1.2543,-1.2516,-1.2473,-1.245,-1.2414,-1.2413,-1.2417,-1.2423,-1.242,-1.2432,-1.2434,0,0,0,-1.2632,-1.2625,-1.2613,-1.259,-1.2559,-1.2531,-1.2491,-1.2475,-1.2443,-1.2437,-1.2414,-1.2417,-1.2415,-1.2414,-1.2416,-1.2412,-1.2395,-1.2395,-1.2395,-1.2662,-1.2635,-1.2618,-1.2584,-1.2562,-1.2521,-1.2501,-1.2472,-1.2451,-1.2446,-1.2435,-1.2446,-1.2446,-1.2447,-1.2443,-1.2434,-1.2434,-1.2434,-1.2434,-1.2662,-1.2648,-1.2621,-1.2595,-1.2567,-1.2544,-1.2504,-1.249,-1.2463,-1.2452,-1.2448,-1.2437,-1.2451,-1.2446,-1.2435,-1.2435,-1.2435,-1.2435,-1.2435,-1.2678,-1.2667,-1.2649,-1.2614,-1.2591,-1.2556,-1.2532,-1.2507,-1.2483,-1.2479,-1.2464,-1.2464,-1.246,-1.2474,-1.2474,-1.2474,-1.2474,-1.2474,-1.2474,-1.2702,-1.2681,-1.2665,-1.2631,-1.2614,-1.2588,-1.2548,-1.2529,-1.2503,-1.2486,-1.2486,-1.2464,-1.2458,-1.2456,-1.2475,-1.2475,-1.2475,-1.2475,-1.2475,-1.271,-1.2704,-1.268,-1.2662,-1.2621,-1.2599,-1.2568,-1.2534,-1.2515,-1.2504,-1.2484,-1.2484,-1.2473,-1.2471,-1.2469,-1.249,-1.249,-1.249,-1.249,-1.2723,-1.2716,-1.2685,-1.2659,-1.2631,-1.2601,-1.2573,-1.2542,-1.2508,-1.2495,-1.2489,-1.2485,-1.2484,-1.2473,-1.2472,-1.247,-1.249,-1.249,-1.249,-1.2726,-1.2715,-1.2696,-1.2665,-1.2631,-1.2602,-1.2576,-1.2546,-1.2507,-1.249,-1.2484,-1.2484,-1.2477,-1.2477,-1.2458,-1.2456,-1.2452,0,0]},{"header":{"parameterUnit":"m.s-1","parameterCategory":1,"la1":30.2992,"la2":30.254,"lo1":-89.0895,"lo2":-89.0443,"dy":0.0025,"dx":0.0025,"nx":19,"ny":19,"refTime":"2026-05-05T09:00:00:Z","depth":0,"parameterNumber":3,"parameterNumberName":"V-component_of_WINDS"},"data":[0,0,0,6.7374,6.7375,6.7426,6.7426,6.7493,6.7493,0,0,0,0,0,0,0,0,0,0,0,6.7361,6.7362,6.7374,6.7375,6.7426,6.7426,6.7493,6.7493,0,0,0,0,0,0,0,0,0,0,0,6.7361,6.7361,6.7362,6.7375,6.7426,6.7426,6.7492,6.7453,0,0,0,0,0,0,0,0,0,0,6.7403,6.7394,6.7361,6.7362,6.7376,6.7426,6.7426,6.7451,6.7455,6.7471,0,6.7487,0,6.7491,6.7498,6.7498,0,0,0,6.7372,6.739,6.7402,6.7362,6.7376,6.7426,6.7402,6.7453,6.7458,6.7477,6.7488,6.749,6.7492,6.7498,6.7499,6.7602,6.7603,0,0,6.7369,6.7371,6.7399,6.7406,6.74,6.7401,6.7404,6.7456,6.7468,6.7488,6.7491,6.7494,6.7499,6.7499,6.7601,6.7602,0,0,0,6.7363,6.7369,6.738,6.7403,6.7412,6.7402,6.7406,6.7465,6.7469,6.7492,6.7494,6.7499,6.75,6.7601,6.7602,6.7635,0,0,0,6.7361,6.7365,6.7378,6.738,6.7412,6.744,6.7413,6.7465,6.7471,6.7494,6.7499,6.7501,6.76,6.7601,6.7632,6.7649,0,0,0,6.7357,6.7365,6.7373,6.738,6.7402,6.7439,6.7445,6.7466,6.7472,6.7498,6.7501,6.76,6.7601,6.763,6.7646,6.7678,0,0,0,6.7351,6.7399,6.7374,6.7428,6.7402,6.746,6.7445,6.7487,6.7513,6.75,6.76,6.7602,6.763,6.7644,6.7676,6.7706,6.7718,0,0,6.7412,6.7407,6.7439,6.7417,6.7481,6.7452,6.7519,6.754,6.754,6.7581,6.7583,6.7633,6.7646,6.7678,6.7788,6.7798,0,0,0,6.7458,6.7482,6.7498,6.7525,6.7544,6.7562,6.7573,6.7581,6.7617,6.7562,6.7653,6.766,6.7679,6.7693,6.7702,6.7718,6.7608,6.7608,6.7608,6.7545,6.7546,6.7599,6.7606,6.7632,6.7645,6.7666,6.7678,6.7668,6.769,6.7702,6.7769,6.7786,6.7792,6.7809,6.7717,6.7718,6.7718,6.7718,6.7635,6.7668,6.7658,6.7706,6.7705,6.7745,6.7759,6.7751,6.7787,6.7759,6.7776,6.7746,6.7804,6.7818,6.772,6.772,6.7719,6.7719,6.7719,6.7692,6.7708,6.772,6.7761,6.7791,6.7796,6.7833,6.783,6.7827,6.7843,6.7856,6.7856,6.7855,6.785,6.785,6.785,6.7851,6.7851,6.7851,6.7746,6.7759,6.7791,6.7819,6.7837,6.786,6.7875,6.7892,6.791,6.7905,6.7905,6.7894,6.781,6.7789,6.7855,6.7854,6.7853,6.7853,6.7853,6.7837,6.7818,6.7868,6.7887,6.7919,6.7951,6.7949,6.7984,6.7997,6.8016,6.8001,6.794,6.7932,6.7926,6.7908,6.8001,6.8001,6.8001,6.8001,6.7886,6.7883,6.7936,6.7966,6.7995,6.7999,6.8055,6.8068,6.8077,6.8086,6.8072,6.8049,6.8042,6.8039,6.8029,6.8013,6.8131,6.8131,6.8131,6.7942,6.7943,6.7992,6.8004,6.8031,6.8053,6.8106,6.814,6.8146,6.8136,6.8092,6.8087,6.8049,6.8037,6.8026,6.8011,6.7982,0,0]}]]